Location: Krakow
(50.0830°N, 19.9170°E)
Time: 08:54:54
(UTC+02:00)

S-56A Canister/Altair - Pass Details

Date: 04 February 2023
Orbit: 639 x 2493 km, 38.9° (Epoch: 30 March)

Event Time Altitude Azimuth Distance (km) Brightness Sun altitude
Rises 12:16:08 0° 244° (WSW) 3,022 11.0 23.5°
Reaches altitude 10° 12:18:33 10° 231° (SW) 2,211 10.7 23.5°
Maximum altitude 12:22:47 27° 173° (S) 1,568 11.2 23.4°
Drops below altitude 10° 12:28:14 10° 118° (ESE) 2,893 10.8 23.3°
Sets 12:31:53 0° 108° (ESE) 4,169 11.4 23.2°
